Appleton, MN

8:18 PM CST on January 16, 2018 (GMT -0600)
Appleton Municipal

Weather History for KAQP - March, 2013

Change the Weather History Date:

Thursday, March 14, 2013

  Actual Average Record
Temperature  
Mean Temperature 29 °F -  
Max Temperature 37 °F 31 °F 64 °F (2015)
Min Temperature 21 °F 15 °F -4 °F (2017)
Degree Days  
Heating Degree Days 36    
Moisture  
Dew Point 25 °F    
Average Humidity 81    
Maximum Humidity 93    
Minimum Humidity 65    
Precipitation  
Precipitation 0.01 in - - ()
Sea Level Pressure  
Sea Level Pressure 30.05 in    
Wind  
Wind Speed 7 mph (ESE)    
Max Wind Speed 14 mph    
Max Gust Speed 18 mph    
Visibility 9 miles    
Events Snow    
Averages and records for this station are not official NWS values.
T = Trace of Precipitation, MM = Missing Value Source: NWS Daily Summary

Daily Weather History Graph

Daily Weather History Graph

Search for Another Location

Airport or City:

Trip Planner

Search our weather history database for the weather conditions in past years. The results will help you decide how hot, cold, wet, or windy it might be!

Date:

Astronomy

Mar. 14, 2013 Rise Set
Actual Time 7:37 AM CDT 7:29 PM CDT
Civil Twilight 7:08 AM CDT 7:58 PM CDT
Nautical Twilight 6:34 AM CDT 8:32 PM CDT
Astronomical Twilight 5:59 AM CDT 9:07 PM CDT
Moon 8:42 AM CDT (3/14) 10:57 PM CDT (3/14)
Length of Visible Light 12h 49m
Length of Day
11h 51m
Waxing Crescent, 9% of the Moon is Illuminated
Mar 14
Waxing Crescent
Mar 19
First Quarter
Mar 27
Full
Apr 2
Last Quarter
Apr 10
New

Hourly Weather History & Observations

Time (CDT) Temp. Windchill Dew Point Humidity Pressure Visibility Wind Dir Wind Speed Gust Speed Precip Events Conditions
12:33 AM 28.4 °F 19.7 °F 24.8 °F 86% 30.11 in 10.0 mi ESE 9.2 mph 16.1 mph N/A   Overcast
1:13 AM 28.4 °F 18.5 °F 24.8 °F 86% 30.09 in 10.0 mi SE 11.5 mph - N/A Snow Light Snow
1:33 AM 28.4 °F 19.1 °F 24.8 °F 86% 30.08 in 10.0 mi SE 10.4 mph - N/A   Overcast
1:53 AM 28.4 °F 19.7 °F 24.8 °F 86% 30.07 in 10.0 mi SE 9.2 mph - N/A   Overcast
2:14 AM 30.2 °F 19.8 °F 26.6 °F 86% 30.05 in 7.0 mi SE 13.8 mph 18.4 mph N/A   Overcast
2:33 AM 30.2 °F 20.2 °F 24.8 °F 80% 30.03 in 10.0 mi SE 12.7 mph - N/A   Mostly Cloudy
2:53 AM 30.2 °F 20.2 °F 24.8 °F 80% 30.02 in 10.0 mi SSE 12.7 mph - N/A   Scattered Clouds
3:13 AM 30.2 °F 21.9 °F 24.8 °F 80% 30.04 in 10.0 mi SE 9.2 mph - N/A   Overcast
3:33 AM 30.2 °F 21.3 °F 26.6 °F 86% 30.04 in 10.0 mi SE 10.4 mph - N/A   Overcast
3:53 AM 30.2 °F 19.8 °F 26.6 °F 86% 30.01 in 7.0 mi SE 13.8 mph - N/A   Overcast
4:13 AM 30.2 °F 20.8 °F 26.6 °F 86% 30.01 in 10.0 mi SE 11.5 mph - N/A   Overcast
4:33 AM 30.2 °F 21.9 °F 26.6 °F 86% 30.02 in 10.0 mi SE 9.2 mph - N/A   Overcast
4:55 AM 28.4 °F 20.4 °F 24.8 °F 86% 30.01 in 10.0 mi SE 8.1 mph - N/A   Scattered Clouds
5:13 AM 28.4 °F 21.2 °F 24.8 °F 86% 30.01 in 10.0 mi SE 6.9 mph - N/A   Clear
5:34 AM 28.4 °F 21.2 °F 24.8 °F 86% 30.01 in 10.0 mi SE 6.9 mph - N/A   Clear
5:53 AM 26.6 °F 21.2 °F 24.8 °F 93% 30.01 in 10.0 mi ESE 4.6 mph - N/A   Clear
6:13 AM 26.6 °F 20.0 °F 23.0 °F 86% 30.02 in 10.0 mi East 5.8 mph - N/A   Clear
6:33 AM 26.6 °F 19.1 °F 23.0 °F 86% 30.02 in 10.0 mi ESE 6.9 mph - N/A   Clear
6:53 AM 24.8 °F 16.1 °F 21.2 °F 86% 30.02 in 10.0 mi East 8.1 mph - N/A   Clear
7:13 AM 24.8 °F 17.9 °F 21.2 °F 86% 30.03 in 10.0 mi East 5.8 mph - N/A   Clear
7:33 AM 23.0 °F 14.7 °F 21.2 °F 93% 30.03 in 7.0 mi East 6.9 mph - N/A   Clear
7:53 AM 21.2 °F 12.6 °F 19.4 °F 93% 30.04 in 7.0 mi East 6.9 mph - N/A   Clear
8:13 AM 21.2 °F 12.6 °F 19.4 °F 93% 30.05 in 5.0 mi East 6.9 mph - N/A   Clear
8:53 AM 24.8 °F 16.9 °F 21.2 °F 86% 30.06 in 7.0 mi East 6.9 mph - N/A   Clear
9:13 AM 24.8 °F 17.9 °F 21.2 °F 86% 30.06 in 7.0 mi East 5.8 mph - N/A   Clear
9:35 AM 26.6 °F - 21.2 °F 80% 30.08 in 7.0 mi Calm Calm - N/A   Clear
9:53 AM 26.6 °F 20.0 °F 21.2 °F 80% 30.08 in 7.0 mi East 5.8 mph - N/A   Clear
10:14 AM 28.4 °F 23.3 °F 23.0 °F 80% 30.08 in 7.0 mi East 4.6 mph - N/A   Clear
10:33 AM 28.4 °F 22.2 °F 23.0 °F 80% 30.07 in 7.0 mi East 5.8 mph - N/A   Clear
10:53 AM 30.2 °F 25.4 °F 24.8 °F 80% 30.07 in 7.0 mi East 4.6 mph - N/A   Clear
11:13 AM 30.2 °F 24.3 °F 24.8 °F 80% 30.07 in 7.0 mi East 5.8 mph - N/A   Clear
11:34 AM 32.0 °F 26.4 °F 24.8 °F 75% 30.07 in 10.0 mi East 5.8 mph - N/A   Clear
11:53 AM 33.8 °F - 24.8 °F 70% 30.08 in 10.0 mi Calm Calm - N/A   Clear
12:14 PM 33.8 °F - 26.6 °F 75% 30.09 in 7.0 mi Calm Calm - N/A   Clear
12:34 PM 33.8 °F - 26.6 °F 75% 30.08 in 7.0 mi Calm Calm - N/A   Clear
12:53 PM 33.8 °F - 26.6 °F 75% 30.09 in 10.0 mi Calm Calm - N/A   Clear
1:13 PM 33.8 °F 30.8 °F 26.6 °F 75% 30.11 in 10.0 mi WNW 3.5 mph - N/A   Clear
1:34 PM 33.8 °F - 26.6 °F 75% 30.11 in 10.0 mi Calm Calm - N/A   Clear
1:54 PM 35.6 °F - 26.6 °F 70% 30.10 in 10.0 mi Calm Calm - N/A   Clear
2:13 PM 35.6 °F - 26.6 °F 70% 30.10 in 10.0 mi Calm Calm - N/A   Clear
2:33 PM 35.6 °F - 26.6 °F 70% 30.09 in 10.0 mi Calm Calm - N/A   Clear
2:53 PM 35.6 °F - 26.6 °F 70% 30.09 in 7.0 mi Calm Calm - N/A   Clear
3:13 PM 35.6 °F - 26.6 °F 70% 30.08 in 10.0 mi Calm Calm - N/A   Clear
3:33 PM 37.4 °F 33.8 °F 26.6 °F 65% 30.08 in 10.0 mi East 4.6 mph - N/A   Clear
3:53 PM 37.4 °F 34.9 °F 26.6 °F 65% 30.08 in 7.0 mi ESE 3.5 mph - N/A   Clear
4:13 PM 37.4 °F - 26.6 °F 65% 30.09 in 10.0 mi Calm Calm - N/A   Clear
4:53 PM 35.6 °F - 26.6 °F 70% 30.09 in 7.0 mi Calm Calm - N/A   Clear
5:13 PM 35.6 °F - 26.6 °F 70% 30.08 in 10.0 mi Calm Calm - N/A   Clear
5:33 PM 35.6 °F - 26.6 °F 70% 30.08 in 10.0 mi Calm Calm - N/A   Clear
5:53 PM 35.6 °F - 26.6 °F 70% 30.07 in 10.0 mi Calm Calm - N/A   Clear
6:13 PM 35.6 °F 32.8 °F 28.4 °F 75% 30.07 in 10.0 mi SE 3.5 mph - N/A   Clear
6:33 PM 35.6 °F 32.8 °F 26.6 °F 70% 30.07 in 10.0 mi South 3.5 mph - N/A   Clear
6:53 PM 35.6 °F - 26.6 °F 70% 30.06 in 10.0 mi Calm Calm - N/A   Clear
7:14 PM 33.8 °F 30.8 °F 26.6 °F 75% 30.06 in 10.0 mi South 3.5 mph - N/A   Clear
7:33 PM 33.8 °F - 28.4 °F 81% 30.06 in 10.0 mi Calm Calm - N/A   Clear
7:53 PM 32.0 °F - 28.4 °F 87% 30.06 in 10.0 mi Calm Calm - N/A   Clear
8:13 PM 30.2 °F 26.7 °F 26.6 °F 86% 30.05 in 10.0 mi South 3.5 mph - N/A   Clear
8:54 PM 30.2 °F - 26.6 °F 86% 30.02 in 10.0 mi Calm Calm - N/A   Clear
9:13 PM 30.2 °F - 26.6 °F 86% 30.02 in 7.0 mi Calm Calm - N/A   Clear
9:33 PM 30.2 °F - 26.6 °F 86% 30.03 in 7.0 mi Calm Calm - N/A   Clear
9:53 PM 28.4 °F 24.6 °F 24.8 °F 86% 30.03 in 5.0 mi NNW 3.5 mph - N/A   Clear
10:14 PM 26.6 °F - 24.8 °F 93% 30.03 in 5.0 mi Calm Calm - N/A   Clear
10:33 PM 26.6 °F - 24.8 °F 93% 30.02 in 5.0 mi Calm Calm - N/A   Clear
10:53 PM 26.6 °F 21.2 °F 24.8 °F 93% 30.02 in 5.0 mi NNE 4.6 mph - N/A   Clear
11:14 PM 26.6 °F 22.6 °F 24.8 °F 93% 30.01 in 5.0 mi ENE 3.5 mph - N/A   Clear
11:33 PM 26.6 °F 22.6 °F 24.8 °F 93% 30.01 in 5.0 mi NE 3.5 mph - N/A   Clear
11:54 PM 26.6 °F 22.6 °F 24.8 °F 93% 30.01 in 5.0 mi North 3.5 mph - 0.01 in   Clear